Time,TemperatureF,DewpointF,PressureIn,WindDirection,WindDirectionDegrees,WindSpeedMPH,WindSpeedGustMPH,Humidity,HourlyPrecipIn,Conditions,Clouds,dailyrainin,SoftwareType,DateUTC
2013-08-05 00:02:00,55.0,53.0,30.13,SSE,148,0.0,0.0,94,0.00,,,0.00,,2013-08-05 05:02:00,
2013-08-05 00:12:00,55.0,53.0,30.13,SSE,148,0.0,0.0,94,0.00,,,0.00,,2013-08-05 05:12:00,
2013-08-05 00:22:00,54.0,53.0,30.13,SSE,148,0.0,0.0,95,0.00,,,0.00,,2013-08-05 05:22:00,
2013-08-05 00:32:00,54.0,53.0,30.13,SSE,148,0.0,0.0,96,0.00,,,0.00,,2013-08-05 05:32:00,
2013-08-05 00:43:00,54.0,53.0,30.13,SSE,148,0.0,0.0,95,0.00,,,0.00,,2013-08-05 05:43:00,
2013-08-05 00:53:00,54.0,53.0,30.13,SSE,148,0.0,0.0,96,0.00,,,0.00,,2013-08-05 05:53:00,
2013-08-05 01:02:00,54.0,53.0,30.12,SSE,148,0.0,0.0,96,0.00,,,0.00,,2013-08-05 06:02:00,
2013-08-05 01:12:00,54.0,53.0,30.12,SSE,148,0.0,0.0,96,0.00,,,0.00,,2013-08-05 06:12:00,
2013-08-05 01:22:00,54.0,53.0,30.12,SSE,148,0.0,0.0,96,0.00,,,0.00,,2013-08-05 06:22:00,
2013-08-05 01:32:00,54.0,53.0,30.12,SSE,148,0.0,0.0,96,0.00,,,0.00,,2013-08-05 06:32:00,
2013-08-05 01:42:00,54.0,53.0,30.11,SSE,148,0.0,0.0,96,0.00,,,0.00,,2013-08-05 06:42:00,
2013-08-05 01:52:00,54.0,53.0,30.11,SSE,148,0.0,0.0,96,0.00,,,0.00,,2013-08-05 06:52:00,
2013-08-05 02:02:00,54.0,53.0,30.11,SSE,148,0.0,0.0,97,0.00,,,0.00,,2013-08-05 07:02:00,
2013-08-05 02:12:00,54.0,53.0,30.10,SSE,148,0.0,0.0,97,0.00,,,0.00,,2013-08-05 07:12:00,
2013-08-05 02:22:00,55.0,54.0,30.10,SSE,152,0.0,0.0,97,0.00,,,0.00,,2013-08-05 07:22:00,
2013-08-05 02:32:00,56.0,55.0,30.09,SE,135,0.0,0.0,95,0.00,,,0.00,,2013-08-05 07:32:00,
2013-08-05 02:43:00,57.0,55.0,30.09,ESE,123,0.0,0.0,93,0.00,,,0.00,,2013-08-05 07:43:00,
2013-08-05 02:52:00,57.0,55.0,30.09,SE,139,0.0,0.0,92,0.00,,,0.00,,2013-08-05 07:52:00,
2013-08-05 03:02:00,56.0,54.0,30.08,SE,138,0.0,0.0,92,0.00,,,0.00,,2013-08-05 08:02:00,
2013-08-05 03:12:00,56.0,54.0,30.08,SE,138,0.0,0.0,92,0.00,,,0.00,,2013-08-05 08:12:00,
2013-08-05 03:22:00,55.0,53.0,30.08,SE,138,0.0,0.0,94,0.00,,,0.00,,2013-08-05 08:22:00,
2013-08-05 03:34:00,55.0,53.0,30.08,SE,138,0.0,0.0,94,0.00,,,0.00,,2013-08-05 08:34:00,
2013-08-05 03:47:00,55.0,53.0,30.08,SE,138,0.0,0.0,94,0.00,,,0.00,,2013-08-05 08:47:00,
2013-08-05 03:53:00,55.0,53.0,30.07,SE,138,0.0,0.0,94,0.00,,,0.00,,2013-08-05 08:53:00,
2013-08-05 04:06:00,55.0,53.0,30.07,SE,138,0.0,0.0,94,0.00,,,0.00,,2013-08-05 09:06:00,
2013-08-05 04:17:00,55.0,54.0,30.06,SE,138,0.0,0.0,95,0.00,,,0.00,,2013-08-05 09:17:00,
2013-08-05 04:27:00,56.0,55.0,30.06,SSE,158,0.0,0.0,95,0.00,,,0.00,,2013-08-05 09:27:00,
2013-08-05 04:38:00,56.0,54.0,30.06,SSE,150,0.0,0.0,94,0.00,,,0.00,,2013-08-05 09:38:00,
2013-08-05 04:48:00,56.0,54.0,30.07,SSE,150,0.0,0.0,93,0.00,,,0.00,,2013-08-05 09:48:00,
2013-08-05 04:53:00,56.0,54.0,30.06,SSE,150,0.0,0.0,93,0.00,,,0.00,,2013-08-05 09:53:00,
2013-08-05 05:08:00,56.0,54.0,30.07,SSE,150,0.0,0.0,93,0.00,,,0.00,,2013-08-05 10:08:00,
2013-08-05 05:26:00,56.0,54.0,30.07,SSE,150,0.0,0.0,94,0.00,,,0.00,,2013-08-05 10:26:00,
2013-08-05 05:33:00,56.0,55.0,30.07,SSE,150,0.0,0.0,95,0.00,,,0.00,,2013-08-05 10:33:00,
2013-08-05 05:46:00,56.0,55.0,30.07,SSE,151,0.0,0.0,95,0.00,,,0.00,,2013-08-05 10:46:00,
2013-08-05 05:52:00,56.0,55.0,30.07,SSE,150,0.0,0.0,95,0.00,,,0.00,,2013-08-05 10:52:00,
2013-08-05 06:14:00,56.0,55.0,30.06,SSE,150,0.0,0.0,95,0.00,,,0.00,,2013-08-05 11:14:00,
2013-08-05 06:36:00,56.0,54.0,30.06,SSE,150,0.0,0.0,94,0.00,,,0.00,,2013-08-05 11:36:00,
2013-08-05 06:56:00,58.0,55.0,30.05,SE,146,0.0,0.0,91,0.00,,,0.00,,2013-08-05 11:56:00,
2013-08-05 07:06:00,58.0,55.0,30.06,SSE,155,0.0,0.0,90,0.00,,,0.00,,2013-08-05 12:06:00,
2013-08-05 07:27:00,59.0,56.0,30.06,SSE,158,0.0,0.0,89,0.00,,,0.00,,2013-08-05 12:27:00,
2013-08-05 07:33:00,59.0,56.0,30.07,SW,230,0.0,0.0,90,0.00,,,0.00,,2013-08-05 12:33:00,
2013-08-05 07:48:00,60.0,57.0,30.08,SW,231,0.0,0.0,89,0.00,,,0.00,,2013-08-05 12:48:00,
2013-08-05 07:55:00,60.0,56.0,30.08,SW,231,0.0,0.0,88,0.00,,,0.00,,2013-08-05 12:55:00,
2013-08-05 08:02:00,60.0,56.0,30.07,SSE,157,0.0,0.0,88,0.00,,,0.00,,2013-08-05 13:02:00,
2013-08-05 08:14:00,61.0,57.0,30.07,SE,139,0.0,0.0,88,0.00,,,0.00,,2013-08-05 13:14:00,
2013-08-05 08:26:00,61.0,57.0,30.07,WSW,247,1.0,3.0,87,0.00,,,0.00,,2013-08-05 13:26:00,
2013-08-05 08:37:00,61.0,57.0,30.07,ESE,118,0.0,0.0,87,0.00,,,0.00,,2013-08-05 13:37:00,
2013-08-05 08:43:00,61.0,57.0,30.06,ESE,113,0.0,0.0,87,0.00,,,0.00,,2013-08-05 13:43:00,
2013-08-05 08:53:00,62.0,58.0,30.07,WSW,250,0.0,0.0,86,0.00,,,0.00,,2013-08-05 13:53:00,
2013-08-05 09:06:00,62.0,58.0,30.06,SE,130,0.0,0.0,86,0.00,,,0.00,,2013-08-05 14:06:00,
2013-08-05 09:26:00,62.0,58.0,30.06,SSW,193,0.0,3.0,86,0.00,,,0.00,,2013-08-05 14:26:00,
2013-08-05 09:53:00,62.0,57.0,30.04,West,263,2.0,7.0,84,0.00,,,0.00,,2013-08-05 14:53:00,
2013-08-05 10:07:00,62.0,57.0,30.03,SE,131,2.0,8.0,84,0.00,,,0.00,,2013-08-05 15:07:00,
2013-08-05 10:14:00,63.0,58.0,30.01,South,191,3.0,8.0,83,0.00,,,0.00,,2013-08-05 15:14:00,
2013-08-05 10:25:00,63.0,58.0,30.00,South,190,2.0,6.0,83,0.00,,,0.00,,2013-08-05 15:25:00,
2013-08-05 10:36:00,64.0,58.0,29.99,SSE,148,2.0,10.0,81,0.00,,,0.00,,2013-08-05 15:36:00,
2013-08-05 10:46:00,65.0,58.0,29.98,SE,137,4.0,9.0,79,0.00,,,0.00,,2013-08-05 15:46:00,
2013-08-05 10:55:00,65.0,58.0,29.98,SE,132,3.0,11.0,77,0.00,,,0.00,,2013-08-05 15:55:00,
2013-08-05 11:07:00,65.0,58.0,29.97,South,180,3.0,9.0,79,0.00,,,0.00,,2013-08-05 16:07:00,
2013-08-05 11:16:00,65.0,58.0,29.96,SE,137,3.0,14.0,79,0.00,,,0.00,,2013-08-05 16:16:00,
2013-08-05 11:25:00,66.0,59.0,29.96,West,259,1.0,11.0,79,0.00,,,0.00,,2013-08-05 16:25:00,
2013-08-05 11:33:00,67.0,60.0,29.96,ESE,113,2.0,8.0,77,0.00,,,0.00,,2013-08-05 16:33:00,
2013-08-05 11:45:00,67.0,60.0,29.96,SW,219,6.0,9.0,77,0.00,,,0.00,,2013-08-05 16:45:00,
2013-08-05 11:55:00,68.0,61.0,29.98,SW,221,3.0,9.0,77,0.00,,,0.00,,2013-08-05 16:55:00,
2013-08-05 12:05:00,68.0,60.0,29.97,SE,142,5.0,9.0,75,0.00,,,0.00,,2013-08-05 17:05:00,
2013-08-05 12:16:00,69.0,61.0,29.98,South,169,1.0,5.0,75,0.00,,,0.00,,2013-08-05 17:16:00,
2013-08-05 12:22:00,71.0,61.0,29.97,SW,231,0.0,6.0,71,0.00,,,0.00,,2013-08-05 17:22:00,
2013-08-05 12:36:00,72.0,61.0,29.97,SW,232,2.0,6.0,68,0.00,,,0.00,,2013-08-05 17:36:00,
2013-08-05 12:47:00,71.0,61.0,29.96,WSW,243,0.0,7.0,71,0.00,,,0.00,,2013-08-05 17:47:00,
2013-08-05 12:55:00,72.0,61.0,29.96,WSW,245,1.0,8.0,68,0.00,,,0.00,,2013-08-05 17:55:00,
2013-08-05 13:08:00,73.0,61.0,29.96,WSW,253,0.0,5.0,67,0.00,,,0.00,,2013-08-05 18:08:00,
2013-08-05 13:13:00,73.0,63.0,29.96,WSW,252,0.0,7.0,70,0.00,,,0.00,,2013-08-05 18:13:00,
2013-08-05 13:26:00,73.0,62.0,29.96,West,278,2.0,4.0,69,0.00,,,0.00,,2013-08-05 18:26:00,
2013-08-05 13:44:00,73.0,63.0,29.97,WSW,241,2.0,6.0,70,0.00,,,0.00,,2013-08-05 18:44:00,
2013-08-05 13:53:00,73.0,63.0,29.96,West,259,0.0,5.0,71,0.00,,,0.00,,2013-08-05 18:53:00,
2013-08-05 14:05:00,72.0,63.0,29.96,SE,145,0.0,6.0,73,0.00,,,0.00,,2013-08-05 19:05:00,
2013-08-05 14:14:00,71.0,62.0,29.96,SSW,212,0.0,3.0,74,0.00,,,0.00,,2013-08-05 19:14:00,
2013-08-05 14:26:00,72.0,63.0,29.95,West,259,1.0,3.0,73,0.00,,,0.00,,2013-08-05 19:26:00,
2013-08-05 14:37:00,72.0,63.0,29.95,WSW,255,0.0,5.0,73,0.00,,,0.00,,2013-08-05 19:37:00,
2013-08-05 14:49:00,72.0,63.0,29.95,WSW,245,0.0,2.0,73,0.00,,,0.00,,2013-08-05 19:49:00,
2013-08-05 15:08:00,71.0,62.0,29.94,SW,221,0.0,4.0,74,0.00,,,0.00,,2013-08-05 20:08:00,
2013-08-05 15:15:00,71.0,62.0,29.94,WSW,238,1.0,4.0,73,0.00,,,0.00,,2013-08-05 20:15:00,
2013-08-05 15:27:00,71.0,62.0,29.94,WSW,253,1.0,6.0,73,0.00,,,0.00,,2013-08-05 20:27:00,
2013-08-05 15:36:00,71.0,62.0,29.93,SW,228,0.0,3.0,73,0.00,,,0.00,,2013-08-05 20:36:00,
2013-08-05 15:56:00,71.0,62.0,29.94,WSW,245,1.0,3.0,73,0.00,,,0.00,,2013-08-05 20:56:00,
2013-08-05 16:26:00,73.0,62.0,29.93,WSW,246,4.0,12.0,69,0.00,,,0.00,,2013-08-05 21:26:00,
2013-08-05 16:33:00,71.0,62.0,29.92,SE,134,2.0,8.0,72,0.00,,,0.00,,2013-08-05 21:33:00,
2013-08-05 16:45:00,71.0,62.0,29.92,West,278,2.0,5.0,72,0.00,,,0.00,,2013-08-05 21:45:00,
2013-08-05 16:53:00,71.0,62.0,29.93,WSW,248,0.0,6.0,73,0.00,,,0.00,,2013-08-05 21:53:00,
2013-08-05 17:05:00,71.0,61.0,29.93,WSW,242,2.0,10.0,71,0.00,,,0.00,,2013-08-05 22:05:00,
2013-08-05 17:26:00,69.0,60.0,29.93,East,101,2.0,7.0,73,0.00,,,0.00,,2013-08-05 22:26:00,
2013-08-05 17:36:00,69.0,60.0,29.92,SSW,212,0.0,4.0,73,0.00,,,0.00,,2013-08-05 22:36:00,
2013-08-05 17:44:00,68.0,60.0,29.92,SE,125,0.0,4.0,75,0.00,,,0.00,,2013-08-05 22:44:00,
2013-08-05 17:53:00,68.0,60.0,29.92,SSE,159,0.0,5.0,76,0.00,,,0.00,,2013-08-05 22:53:00,
2013-08-05 18:15:00,68.0,61.0,29.91,South,184,1.0,6.0,78,0.00,,,0.00,,2013-08-05 23:15:00,
2013-08-05 18:25:00,68.0,61.0,29.90,South,177,2.0,6.0,79,0.00,,,0.00,,2013-08-05 23:25:00,
2013-08-05 18:33:00,68.0,62.0,29.90,SW,221,1.0,4.0,80,0.00,,,0.00,,2013-08-05 23:33:00,
2013-08-05 18:46:00,68.0,62.0,29.90,ESE,111,2.0,4.0,81,0.00,,,0.00,,2013-08-05 23:46:00,
2013-08-05 18:56:00,68.0,62.0,29.89,SSE,149,0.0,4.0,81,0.00,,,0.00,,2013-08-05 23:56:00,
2013-08-05 19:02:00,67.0,61.0,29.89,ESE,103,1.0,4.0,82,0.00,,,0.00,,2013-08-06 00:02:00,
2013-08-05 19:15:00,67.0,61.0,29.89,ESE,117,0.0,3.0,82,0.00,,,0.00,,2013-08-06 00:15:00,
2013-08-05 19:24:00,67.0,61.0,29.89,SE,134,0.0,3.0,82,0.00,,,0.00,,2013-08-06 00:24:00,
2013-08-05 19:36:00,67.0,61.0,29.89,SW,225,0.0,3.0,82,0.00,,,0.00,,2013-08-06 00:36:00,
2013-08-05 19:45:00,67.0,62.0,29.89,SE,136,0.0,4.0,83,0.00,,,0.00,,2013-08-06 00:45:00,
2013-08-05 20:07:00,67.0,61.0,29.88,SE,137,0.0,4.0,82,0.00,,,0.00,,2013-08-06 01:07:00,
2013-08-05 20:14:00,67.0,62.0,29.89,SE,125,1.0,3.0,83,0.00,,,0.00,,2013-08-06 01:14:00,
2013-08-05 20:38:00,67.0,62.0,29.89,South,171,1.0,4.0,84,0.00,,,0.00,,2013-08-06 01:38:00,
2013-08-05 21:07:00,66.0,61.0,29.88,SE,146,0.0,5.0,84,0.00,,,0.00,,2013-08-06 02:07:00,
2013-08-05 21:15:00,66.0,61.0,29.88,SE,138,1.0,3.0,84,0.00,,,0.00,,2013-08-06 02:15:00,
2013-08-05 21:26:00,66.0,61.0,29.88,SW,215,0.0,3.0,83,0.00,,,0.00,,2013-08-06 02:26:00,
2013-08-05 21:32:00,66.0,61.0,29.88,SSW,194,0.0,5.0,83,0.00,,,0.00,,2013-08-06 02:32:00,
2013-08-05 21:52:00,66.0,61.0,29.88,SW,222,0.0,3.0,84,0.00,,,0.00,,2013-08-06 02:52:00,
2013-08-05 22:01:00,66.0,61.0,29.89,South,190,0.0,2.0,84,0.00,,,0.00,,2013-08-06 03:01:00,
2013-08-05 22:35:00,66.0,61.0,29.89,SE,137,0.0,4.0,85,0.00,,,0.00,,2013-08-06 03:35:00,
2013-08-05 22:45:00,66.0,61.0,29.88,SE,136,0.0,5.0,85,0.00,,,0.00,,2013-08-06 03:45:00,
2013-08-05 22:52:00,66.0,61.0,29.88,SSW,200,1.0,6.0,85,0.00,,,0.00,,2013-08-06 03:52:00,
2013-08-05 23:01:00,66.0,62.0,29.88,SSE,166,1.0,4.0,86,0.00,,,0.00,,2013-08-06 04:01:00,
2013-08-05 23:11:00,66.0,62.0,29.88,SE,143,0.0,0.0,86,0.00,,,0.00,,2013-08-06 04:11:00,
2013-08-05 23:22:00,66.0,62.0,29.88,SSE,160,0.0,0.0,86,0.00,,,0.00,,2013-08-06 04:22:00,
2013-08-05 23:33:00,66.0,62.0,29.88,SE,131,0.0,4.0,87,0.00,,,0.00,,2013-08-06 04:33:00,
2013-08-05 23:44:00,66.0,62.0,29.88,WSW,240,0.0,0.0,87,0.00,,,0.00,,2013-08-06 04:44:00,
2013-08-05 23:53:00,66.0,62.0,29.88,SE,142,0.0,1.0,87,0.00,,,0.00,,2013-08-06 04:53:00,